When you browse on this site, cookies collect data to enhance your experience and personalize the content and advertising you see.
Visit our Privacy Policy to learn more. By continuing to use the site, you agree to this use of cookies and data.
  • In United Kingdom
  • List of Countries
  • For 7 days
  • Water Temperature
  • Satellite Maps
  • Weather Map
  • Weather Widgets
  • user-avatar
    Login

    Hourly Weather Malakoff

    Today, 24 April, Wednesday

    Time Temperature Precipitation Wind Pressure Humidity
    00:00 +16°C° 0.2 mm 2 mps 740 mmHg 75%
    01:00 +14°C° 0.3 mm 3 mps 740 mmHg 78%
    02:00 +14°C° 0.3 mm 3 mps 740 mmHg 80%
    03:00 +13°C° 0.3 mm 4 mps 740 mmHg 83%
    04:00 +14°C° 0 mm 4 mps 740 mmHg 80%
    05:00 +14°C° 0 mm 5 mps 740 mmHg 77%
    06:00 +14°C° 0 mm 5 mps 741 mmHg 75%
    07:00 +14°C° 0 mm 5 mps 741 mmHg 73%
    08:00 +15°C° 0 mm 5 mps 741 mmHg 71%
    09:00 +15°C° 0 mm 5 mps 741 mmHg 69%
    10:00 +15°C° 0.1 mm 5 mps 742 mmHg 66%
    11:00 +15°C° 0.1 mm 5 mps 742 mmHg 63%
    12:00 +15°C° 0.1 mm 5 mps 743 mmHg 60%
    13:00 +15°C° 0.2 mm 5 mps 743 mmHg 61%
    14:00 +15°C° 0.2 mm 5 mps 743 mmHg 61%
    15:00 +15°C° 0.2 mm 6 mps 743 mmHg 62%
    16:00 +15°C° 0.3 mm 5 mps 743 mmHg 62%
    17:00 +14°C° 0.3 mm 5 mps 743 mmHg 63%
    18:00 +14°C° 0.3 mm 5 mps 743 mmHg 63%
    19:00 +14°C° 0 mm 4 mps 743 mmHg 64%
    20:00 +13°C° 0 mm 3 mps 744 mmHg 64%
    21:00 +12°C° 0 mm 3 mps 744 mmHg 65%
    22:00 +12°C° 0 mm 3 mps 744 mmHg 66%
    23:00 +13°C° 0 mm 4 mps 744 mmHg 67%

    Tomorrow, 25 April, Thursday

    Time Temperature Precipitation Wind Pressure Humidity
    00:00 +13°C° 0 mm 4 mps 744 mmHg 68%
    01:00 +12°C° 0.2 mm 5 mps 744 mmHg 69%
    02:00 +11°C° 0.2 mm 6 mps 744 mmHg 70%
    03:00 +11°C° 0.2 mm 7 mps 743 mmHg 71%
    04:00 +11°C° 0.6 mm 6 mps 744 mmHg 74%
    05:00 +11°C° 0.6 mm 6 mps 744 mmHg 77%
    06:00 +10°C° 0.6 mm 6 mps 744 mmHg 80%
    07:00 +11°C° 0 mm 6 mps 745 mmHg 77%
    08:00 +12°C° 0 mm 5 mps 746 mmHg 75%
    09:00 +12°C° 0 mm 4 mps 746 mmHg 72%
    10:00 +12°C° 0.2 mm 5 mps 747 mmHg 69%
    11:00 +13°C° 0.2 mm 5 mps 747 mmHg 67%
    12:00 +13°C° 0.2 mm 5 mps 748 mmHg 65%
    13:00 +13°C° 0.1 mm 5 mps 748 mmHg 63%
    14:00 +13°C° 0.1 mm 5 mps 748 mmHg 60%
    15:00 +14°C° 0.1 mm 5 mps 749 mmHg 58%
    16:00 +13°C° 0.1 mm 5 mps 749 mmHg 59%
    17:00 +13°C° 0.1 mm 5 mps 749 mmHg 61%
    18:00 +12°C° 0.1 mm 5 mps 750 mmHg 62%
    19:00 +12°C° 0 mm 5 mps 750 mmHg 64%
    20:00 +10°C° 0 mm 5 mps 751 mmHg 66%
    21:00 +9°C° 0 mm 5 mps 751 mmHg 69%
    22:00 +10°C° 0 mm 4 mps 752 mmHg 71%
    23:00 +8°C° 0 mm 4 mps 752 mmHg 73%

    Day after tomorrow, 26 April, Friday

    Time Temperature Precipitation Wind Pressure Humidity
    00:00 +8°C° 0 mm 4 mps 752 mmHg 75%
    01:00 +7°C° 0 mm 4 mps 752 mmHg 77%
    02:00 +7°C° 0 mm 4 mps 753 mmHg 79%
    03:00 +7°C° 0 mm 5 mps 753 mmHg 81%
    04:00 +7°C° 0 mm 5 mps 753 mmHg 77%
    05:00 +8°C° 0 mm 5 mps 753 mmHg 73%
    06:00 +9°C° 0 mm 5 mps 753 mmHg 70%
    07:00 +10°C° 0 mm 5 mps 754 mmHg 66%
    08:00 +12°C° 0 mm 5 mps 754 mmHg 62%
    09:00 +14°C° 0 mm 6 mps 754 mmHg 58%
    10:00 +15°C° 0.1 mm 5 mps 754 mmHg 55%
    11:00 +15°C° 0.1 mm 5 mps 754 mmHg 52%
    12:00 +16°C° 0.1 mm 5 mps 754 mmHg 48%
    13:00 +16°C° 0.4 mm 5 mps 754 mmHg 50%
    14:00 +16°C° 0.4 mm 5 mps 754 mmHg 52%
    15:00 +16°C° 0.4 mm 6 mps 755 mmHg 54%
    16:00 +15°C° 0.2 mm 5 mps 755 mmHg 58%
    17:00 +14°C° 0.2 mm 4 mps 755 mmHg 62%
    18:00 +14°C° 0.2 mm 4 mps 756 mmHg 65%
    19:00 +13°C° 0.1 mm 4 mps 756 mmHg 68%
    20:00 +12°C° 0.1 mm 4 mps 757 mmHg 71%
    21:00 +11°C° 0.1 mm 4 mps 757 mmHg 74%
    22:00 +10°C° 0 mm 4 mps 757 mmHg 74%
    23:00 +8°C° 0 mm 5 mps 757 mmHg 74%

    27 April, Saturday

    Time Temperature Precipitation Wind Pressure Humidity
    00:00 +8°C° 0 mm 5 mps 756 mmHg 74%
    01:00 +8°C° 0.1 mm 6 mps 756 mmHg 75%
    02:00 +8°C° 0.1 mm 7 mps 755 mmHg 77%
    03:00 +8°C° 0.1 mm 7 mps 754 mmHg 78%
    04:00 +7°C° 0.3 mm 8 mps 754 mmHg 76%
    05:00 +7°C° 0.3 mm 8 mps 754 mmHg 74%
    06:00 +7°C° 0.3 mm 8 mps 753 mmHg 72%
    07:00 +7°C° 0.4 mm 8 mps 753 mmHg 73%
    08:00 +7°C° 0.4 mm 9 mps 753 mmHg 73%
    09:00 +8°C° 0.4 mm 9 mps 753 mmHg 74%
    10:00 +8°C° 0.9 mm 9 mps 754 mmHg 75%
    11:00 +8°C° 0.9 mm 9 mps 754 mmHg 76%
    12:00 +9°C° 0.9 mm 8 mps 754 mmHg 77%
    13:00 +10°C° 0.4 mm 9 mps 755 mmHg 74%
    14:00 +10°C° 0.4 mm 9 mps 755 mmHg 71%
    15:00 +10°C° 0.4 mm 9 mps 756 mmHg 68%
    16:00 +10°C° 0.2 mm 8 mps 756 mmHg 70%
    17:00 +10°C° 0.2 mm 8 mps 757 mmHg 73%
    18:00 +10°C° 0.2 mm 8 mps 758 mmHg 75%
    19:00 +9°C° 0.8 mm 7 mps 758 mmHg 78%
    20:00 +9°C° 0.8 mm 7 mps 759 mmHg 80%
    21:00 +9°C° 0.8 mm 7 mps 760 mmHg 82%
    22:00 +9°C° 0.2 mm 6 mps 760 mmHg 82%
    23:00 +8°C° 0.2 mm 6 mps 761 mmHg 82%

    28 April, Sunday

    Time Temperature Precipitation Wind Pressure Humidity
    00:00 +8°C° 0.2 mm 5 mps 761 mmHg 81%
    01:00 +8°C° 0 mm 5 mps 762 mmHg 82%
    02:00 +7°C° 0 mm 4 mps 762 mmHg 83%
    03:00 +7°C° 0 mm 4 mps 762 mmHg 84%
    04:00 +7°C° 0 mm 4 mps 762 mmHg 83%
    05:00 +7°C° 0 mm 4 mps 763 mmHg 81%
    06:00 +7°C° 0 mm 4 mps 763 mmHg 80%
    07:00 +8°C° 0 mm 4 mps 763 mmHg 74%
    08:00 +11°C° 0 mm 3 mps 763 mmHg 68%
    09:00 +12°C° 0 mm 3 mps 763 mmHg 62%
    10:00 +13°C° 0 mm 3 mps 763 mmHg 60%
    11:00 +14°C° 0 mm 3 mps 763 mmHg 57%
    12:00 +14°C° 0 mm 3 mps 762 mmHg 54%
    13:00 +14°C° 0 mm 3 mps 762 mmHg 53%
    14:00 +14°C° 0 mm 3 mps 762 mmHg 53%
    15:00 +14°C° 0 mm 3 mps 762 mmHg 53%
    16:00 +14°C° 0 mm 3 mps 762 mmHg 55%
    17:00 +14°C° 0 mm 3 mps 761 mmHg 57%
    18:00 +13°C° 0 mm 3 mps 761 mmHg 59%
    19:00 +12°C° 0 mm 3 mps 762 mmHg 63%
    20:00 +12°C° 0 mm 2 mps 762 mmHg 67%
    21:00 +10°C° 0 mm 2 mps 762 mmHg 70%
    22:00 +9°C° 0 mm 2 mps 762 mmHg 73%
    23:00 +9°C° 0 mm 2 mps 762 mmHg 75%

    29 April, Monday

    Time Temperature Precipitation Wind Pressure Humidity
    00:00 +8°C° 0 mm 2 mps 761 mmHg 78%
    01:00 +9°C° 0 mm 1 mps 761 mmHg 79%
    02:00 +8°C° 0 mm 1 mps 761 mmHg 81%
    03:00 +8°C° 0 mm 1 mps 761 mmHg 82%
    04:00 +8°C° 0 mm 1 mps 761 mmHg 81%
    05:00 +9°C° 0 mm 1 mps 761 mmHg 81%
    06:00 +9°C° 0 mm 1 mps 761 mmHg 80%
    07:00 +11°C° 0 mm 1 mps 760 mmHg 72%
    08:00 +12°C° 0 mm 1 mps 760 mmHg 65%
    09:00 +14°C° 0 mm 1 mps 760 mmHg 58%
    10:00 +15°C° 0 mm 1 mps 760 mmHg 51%
    11:00 +18°C° 0 mm 1 mps 759 mmHg 45%
    12:00 +19°C° 0 mm 1 mps 759 mmHg 38%
    13:00 +19°C° 0 mm 1 mps 758 mmHg 38%
    14:00 +20°C° 0 mm 1 mps 758 mmHg 37%
    15:00 +19°C° 0 mm 2 mps 757 mmHg 36%
    16:00 +18°C° 0 mm 2 mps 757 mmHg 41%
    17:00 +17°C° 0 mm 2 mps 756 mmHg 46%
    18:00 +17°C° 0 mm 3 mps 756 mmHg 51%
    19:00 +16°C° 0 mm 3 mps 756 mmHg 56%
    20:00 +14°C° 0 mm 3 mps 756 mmHg 61%
    21:00 +13°C° 0 mm 3 mps 756 mmHg 66%
    22:00 +13°C° 0 mm 2 mps 756 mmHg 67%
    23:00 +12°C° 0 mm 2 mps 756 mmHg 69%
    Show more